Simultaneous Nadir Overpasses (SNOs) Predictions

Prediction of SNOs between LANDSAT-8 and METOP-B Satellite Orbit:

Table of predicted SNOs for the next 14.0 days since TLE Epoch: 8/20/2016
Index Date (LANDSAT-8) Time (LANDSAT-8) Lat,Lon (LANDSAT-8) SZA (LANDSAT-8 ) Date (METOP-B) Time (METOP-B) Lat,Lon (METOP-B) SZA (METOP-B ) Distance(km) Time Diff (sec)
1 08/22/2016 06:11:13 81.07, 126.42 71.43 08/22/2016 06:10:05 81.06, 126.30 71.38 2.18 68
2 08/22/2016 07:00:39 -81.09, -65.63 108.52 08/22/2016 07:00:44 -81.10, -65.48 108.49 2.75 5
3 08/25/2016 01:45:30 81.05,-167.36 72.37 08/25/2016 01:44:30 81.06,-167.49 72.34 2.33 60
4 08/25/2016 02:34:55 -81.10, 0.98 107.51 08/25/2016 02:35:08 -81.10, 1.13 107.49 2.68 13
5 08/27/2016 21:19:46 81.06,-100.82 73.39 08/27/2016 21:18:54 81.06,-100.93 73.35 2.01 52
6 08/27/2016 22:09:12 -81.09, 67.18 106.55 08/27/2016 22:09:33 -81.10, 67.34 106.52 2.97 21
7 08/30/2016 16:54:01 81.07, -34.32 74.42 08/30/2016 16:53:17 81.07, -34.39 74.39 1.33 44
8 08/30/2016 17:43:27 -81.09, 133.71 105.52 08/30/2016 17:43:57 -81.09, 133.53 105.52 3.07 30
9 09/02/2016 12:28:17 81.07, 32.14 75.46 09/02/2016 12:27:41 81.07, 32.13 75.45 0.42 36




NCC Satellite Simultaneous Nadir Overpasses (SNOs) Prediction Service
